Погода в Табе

Египет     29°29′30″N   34°53′58″E
темп.,
°C
ветер,
м/с
пор.,
м/с
влажн.,
%
обл.,
%
осадки,
мм/ч
давл.,
гПа
погр.,
м
27 ноября, сб
сб2723:00+18с45534 0.0 1020104
02:00+17с44514 0.0 101990
05:00+17с44481 0.0 101982
08:00+20с45390 0.0 1020237
11:00+25с44270 0.0 1018416
14:00+27ссз55240 0.0 1016444
17:00+23ссв44336 0.0 101733
20:00+21ссв34305 0.0 101843
28 ноября, вс
вс2823:00+21ссв233036 0.0 101830
02:00+20ссв332965 0.0 101841
05:00+19ссв223058 0.0 101827
08:00+23ссв22240 0.0 101959
11:00+28с34181 0.0 1018441
14:00+29с55155 0.0 1016554
17:00+25ссв55205 0.0 101743
20:00+23ссв55225 0.0 101852
29 ноября, пн
пн2923:00+22ссв342335 0.0 101940
02:00+21ссв332471 0.0 101929
05:00+21ссв332361 0.0 101837
08:00+24ссв23205 0.0 101985
11:00+29с34155 0.0 1018619
14:00+31ссз2215100 0.0 1015440
17:00+26ссв332183 0.0 101614
20:00+24св332497 0.0 101714
30 ноября, вт
вт3023:00+23всв222580 0.0 101711
02:00+22в222763 0.0 101711
05:00+22в222789 0.0 101611
08:00+25в112260 0.0 101728
11:00+28зюз111979 0.0 1016292
14:00+29ююз231618 0.0 1014652
17:00+25зсз11240 0.0 101511
20:00+24с44210 0.0 101627
1 декабря, ср
ср123:00+21с44313 0.0 101757
02:00+19с56455 0.0 101695
05:00+17с56707 0.0 1017145
08:00+18с45683 0.0 1017528
11:00+21ссз45540 0.0 1016967
14:00+22с56475 0.0 1014914
17:00+20ссз57465 0.0 1015197
20:00+18с35523 0.0 1017238